Location: *
(42.3442°N, 9.2072°E)
Time: 18:10:12
(UTC+00:00)

COSMOS 2406 - Pass Details

Date: 09 April 2020
Orbit: 842 x 865 km, 71.0° (Epoch: 02 June)

Event Time Altitude Azimuth Distance (km) Brightness Sun altitude
Exits shadow 20:55:02 44° 236° (WSW) 1,157 3.9 -29.2°
Maximum altitude 20:56:42 64° 297° (WNW) 940 3.5 -29.4°
Drops below altitude 10° 21:02:22 10° 19° (NNE) 2,488 5.9 -30.1°
Sets 21:04:52 0° 22° (NNE) 3,431 6.7 -30.4°
